Regional Weather Roundup
Issued by NWS Kansas City/Pleasant Hill, MO

Home | Current Version | Previous Version | Graphics & Text | Print | Product List | Glossary Off
Versions: 1 2 3 4 5 6 7 8 9 10 11 12 13 14 15 16 17 18 19 20 21 22 23 24 25 26 27 28 29 30 31 32 33 34 35 36 37 38 39 40 41 42 43 44 45 46 47 48 49 50

834
ASUS43 KEAX 240610
RWREAX

WEATHER ROUNDUP FOR EASTERN KANSAS AND NORTHWEST MISSOURI
NATIONAL WEATHER SERVICE KANSAS CITY/PLEASANT HILL MO
100 AM CDT SUN JUL 24 2016

KSZ040-057-103>105-MOZ028-029-037-043-240700-
...KANSAS CITY METROPOLITAN AREA...

CITY           SKY/WX    TMP DP  RH WIND       PRES   REMARKS
K.C. INTL      CLOUDY    84  72  67 S12       29.88S
6HR MIN TEMP:  82; 6HR MAX TEMP:  87;

K.C. DOWNTOWN  CLOUDY    89  71  55 S6        29.86S HX  95
6HR MIN TEMP:  89; 6HR MAX TEMP:  92;

LEES SUMMIT    CLOUDY    87  72  60 S12       29.90R HX  93
6HR MIN TEMP:  87; 6HR MAX TEMP:  93;

OLATHE - IXD   CLOUDY    82  72  71 S7        29.90R
6HR MIN TEMP:  82; 6HR MAX TEMP:  91;

OLATHE - OJC   CLOUDY    82  72  71 S7        29.90S
6HR MIN TEMP:  80; 6HR MAX TEMP:  89;

LAWRENCE       CLEAR     80  72  76 E9        29.87R

$$

MOZ001>008-011>017-020>025-030>033-038>040-044>046-053-054-240700-
...NORTHERN AND CENTRAL MISSOURI...

CITY           SKY/WX    TMP DP  RH WIND       PRES   REMARKS
ST. JOSEPH     MOCLDY    84  72  67 S8        29.85S
6HR MIN TEMP:  83; 6HR MAX TEMP:  88;

MOSBY          CLOUDY    82  73  74 SE6       29.88R
WHITEMAN AFB   CLOUDY    82  79  88 S7        29.89S HX  92
6HR MIN TEMP:  82; 6HR MAX TEMP:  92;

CLINTON        CLOUDY    82  77  83 CALM      29.91S HX  91
SEDALIA        CLOUDY    83  76  79 S3        29.93R HX  91
6HR MIN TEMP:  82; 6HR MAX TEMP:  93;

WARSAW         NOT AVBL
CHILLICOTHE      N/A     83  75  77 S3        29.89S HX  90
6HR MIN TEMP:  83; 6HR MAX TEMP:  90;

KIRKSVILLE     CLOUDY    80  76  87 S5        29.91F
6HR MIN TEMP:  80; 6HR MAX TEMP:  89;


$$

MOZ041-047>049-056>058-063>065-088>090-097-240700-
...EASTERN AND SOUTHERN MISSOURI...

CITY           SKY/WX    TMP DP  RH WIND       PRES   REMARKS
ST. LOUIS INTL PTCLDY    86  73  65 S8        29.95R HX  93
6HR MIN TEMP:  86; 6HR MAX TEMP:  93;

SPIRIT OF STL  CLEAR     79  77  94 CALM      29.92F
COLUMBIA       CLEAR     81  78  91 SE7       29.93S
JEFFERSON CITY CLEAR     82  77  84 SE5       29.91S HX  90
ROLLA          CLEAR     81  75  82 S8        29.95S
OSAGE BEACH    CLEAR     81  75  82 S6        29.94S
SPRINGFIELD    CLEAR     83  74  74 S7        29.95S
BRANSON        PTCLDY    79  73  83 CALM      29.98S
JOPLIN         PTCLDY    82  75  79 S7        29.93R
WEST PLAINS    CLEAR     76  70  82 CALM      30.01S

$$

IAZ060-094-KSZ022-034>040-054-083-096-NEZ052-066-093-240700-
...KANSAS...SOUTHEAST NEBRASKA AND IOWA...

CITY           SKY/WX    TMP DP  RH WIND       PRES   REMARKS
TOPEKA         CLEAR     86  69  56 S8        29.85S HX  90
6HR MIN TEMP:  86; 6HR MAX TEMP:  90;

MANHATTAN      CLEAR     88  67  49 S14G21    29.84R HX  91
EMPORIA          N/A     83  70  64 S13       29.88S
CHANUTE        CLOUDY    79  72  79 CALM      29.90S
WICHITA        PTCLDY    86  68  54 S12       29.88S
OMAHA          CLOUDY    85  74  69 S6        29.82S HX  92
LINCOLN        CLEAR     76  72  87 S6        29.84S
FALLS CITY     CLOUDY    79  73  82 S8        29.84R
LAMONI         PTCLDY    79  76  90 S10       29.87F
DES MOINES     CLOUDY    83  77  82 S8        29.83S HX  92

$$





USA.gov is the U.S. government's official web portal to all federal, state and local government web resources and services.